STARLINK-3953 (52559 NORAD) Tracking and Keplerian Element Data

This shows tracking and keplerian element data for the satellite.

Feedback or suggestion? Click here.




ElementValue
Catalog52559
NameSTARLINK-3953
Epoch Orbit130
Epoch Day167.08334491
Epoch Year2022
RAAN129.0038
Inclination53.2167
Eccentricity0.0002534
Argument of Perigee14.8065
Mean Anonmoly47.9414
Mean Motion15.73239042
Decay Rate0.00029132
L11 52559U 22051AC 22167.08334491 .00029132 00000+0 21090-3 0 9997
L22 52559 53.2167 129.0038 0002534 14.8065 47.9414 15.73239042 1302

Live tracking and technical data element details for STARLINK-3953 (NORAD 52559). STARLINK-3953 can be tracked NOW for your location showing map with azimuth and elevation plus other details from your city location.

Track the satellite on the map from your city or location and see movement details for azimuth, elevation, latitude, longitude, range, height, and movement on the map or in text.







IsCatalogInMostPopularTable: catalog: 52559, numindb: 3
Update: records affected: 1



GetName: 52559 STARLINK-3953

Hit Count: updated at: Mon, 27 Jun 2022 04:59:47 GMT